Weather History for KDMW - May, 2013

Change the Weather History Date:

Saturday, May 18, 2013

  Actual Average (KHGR) Record (KHGR)
Temperature  
Mean Temperature 63 °F 62 °F  
Max Temperature 69 °F 73 °F - ()
Min Temperature 57 °F 52 °F - ()
Degree Days  
Heating Degree Days 2 4  
Month to date heating degree days 112  
Since 1 July heating degree days 5126  
Cooling Degree Days 0 2  
Month to date cooling degree days 22  
Year to date cooling degree days 37  
Growing Degree Days 13 (Base 50)    
Moisture  
Dew Point 53 °F    
Average Humidity 73    
Maximum Humidity 100    
Minimum Humidity 46    
Precipitation  
Precipitation 0.00 in 0.12 in - ()
Month to date precipitation 2.17  
Year to date precipitation 14.34  
Sea Level Pressure  
Sea Level Pressure 30.22 in    
Wind  
Wind Speed 6 mph (SE)    
Max Wind Speed 14 mph    
Max Gust Speed 18 mph    
Visibility 10 miles    
Events Rain    
T = Trace of Precipitation, MM = Missing Value Source: NWS Daily Summary

Daily Weather History Graph

Daily Weather History Graph

Search for Another Location

Airport or City:

Trip Planner

Search our weather history database for the weather conditions in past years. The results will help you decide how hot, cold, wet, or windy it might be!

Date:

Astronomy

May. 18, 2013 Rise Set
Actual Time 5:50 AM EDT 8:18 PM EDT
Civil Twilight 5:20 AM EDT 8:49 PM EDT
Nautical Twilight 4:42 AM EDT 9:27 PM EDT
Astronomical Twilight 4:00 AM EDT 10:09 PM EDT
Moon 1:21 PM EDT (5/18) 1:40 AM EDT (5/18)
Length of Visible Light 15h 29m
Length of Day
14h 27m
First Quarter, 55% of the Moon is Illuminated
May 18
First Quarter
May 25
Full
May 31
Last Quarter
Jun 8
New
Jun 16
First Quarter

Hourly Weather History & Observations

Time (EDT) Temp. Dew Point Humidity Pressure Visibility Wind Dir Wind Speed Gust Speed Precip Events Conditions
12:05 AM 66.2 °F 44.6 °F 46% 30.18 in 10.0 mi Calm Calm - N/A   Scattered Clouds
12:25 AM 66.2 °F 46.4 °F 49% 30.18 in 10.0 mi ESE 3.5 mph - N/A   Scattered Clouds
12:45 AM 66.2 °F 46.4 °F 49% 30.17 in 10.0 mi ESE 3.5 mph - N/A   Mostly Cloudy
1:05 AM 66.2 °F 48.2 °F 52% 30.18 in 10.0 mi Calm Calm - N/A   Overcast
1:25 AM 66.2 °F 48.2 °F 52% 30.18 in 10.0 mi Calm Calm - N/A   Overcast
1:45 AM 64.4 °F 48.2 °F 56% 30.18 in 10.0 mi ESE 3.5 mph - N/A   Overcast
2:05 AM 64.4 °F 50.0 °F 59% 30.18 in 10.0 mi ESE 3.5 mph - N/A   Overcast
2:25 AM 64.4 °F 51.8 °F 64% 30.18 in 10.0 mi SE 4.6 mph - N/A   Overcast
2:45 AM 64.4 °F 51.8 °F 64% 30.18 in 10.0 mi ESE 4.6 mph - N/A   Scattered Clouds
3:05 AM 64.4 °F 53.6 °F 68% 30.18 in 10.0 mi SE 6.9 mph - N/A   Mostly Cloudy
3:25 AM 64.4 °F 53.6 °F 68% 30.18 in 10.0 mi SE 8.1 mph - N/A   Mostly Cloudy
4:05 AM 62.6 °F 51.8 °F 68% 30.19 in 10.0 mi SE 6.9 mph - N/A   Scattered Clouds
4:45 AM 60.8 °F 53.6 °F 77% 30.20 in 10.0 mi ESE 6.9 mph - N/A   Clear
5:05 AM 60.8 °F 53.6 °F 77% 30.20 in 10.0 mi SE 5.8 mph - N/A   Clear
5:25 AM 59.0 °F 53.6 °F 82% 30.20 in 10.0 mi SE 5.8 mph - N/A   Clear
5:45 AM 59.0 °F 51.8 °F 77% 30.21 in 10.0 mi SE 6.9 mph - N/A   Clear
6:05 AM 59.0 °F 51.8 °F 77% 30.21 in 10.0 mi SE 8.1 mph - N/A   Scattered Clouds
6:25 AM 59.0 °F 51.8 °F 77% 30.21 in 10.0 mi SE 9.2 mph - N/A   Scattered Clouds
6:45 AM 59.0 °F 51.8 °F 77% 30.21 in 10.0 mi SE 10.4 mph - N/A   Scattered Clouds
7:05 AM 59.0 °F 51.8 °F 77% 30.22 in 10.0 mi SE 10.4 mph - N/A   Clear
7:25 AM 60.8 °F 51.8 °F 72% 30.22 in 10.0 mi SE 9.2 mph - N/A   Clear
7:45 AM 60.8 °F 51.8 °F 72% 30.23 in 10.0 mi SE 9.2 mph - N/A   Clear
8:05 AM 62.6 °F 51.8 °F 68% 30.23 in 10.0 mi SE 8.1 mph - N/A   Clear
8:25 AM 62.6 °F 51.8 °F 68% 30.23 in 10.0 mi SE 10.4 mph - N/A   Mostly Cloudy
8:45 AM 64.4 °F 51.8 °F 64% 30.23 in 10.0 mi SE 10.4 mph - N/A   Overcast
9:05 AM 64.4 °F 51.8 °F 64% 30.24 in 10.0 mi SE 11.5 mph - N/A   Overcast
9:25 AM 64.4 °F 51.8 °F 64% 30.25 in 10.0 mi SSE 8.1 mph - N/A   Overcast
9:45 AM 64.4 °F 51.8 °F 64% 30.25 in 10.0 mi SE 8.1 mph - N/A   Overcast
10:05 AM 66.2 °F 51.8 °F 60% 30.24 in 10.0 mi SSE 9.2 mph - N/A   Overcast
10:25 AM 68.0 °F 51.8 °F 56% 30.24 in 10.0 mi South 11.5 mph - N/A   Overcast
10:45 AM 69.8 °F 51.8 °F 53% 30.25 in 10.0 mi SSE 8.1 mph - N/A   Overcast
11:05 AM 68.0 °F 50.0 °F 52% 30.25 in 10.0 mi South 9.2 mph - N/A   Overcast
11:30 AM 68.0 °F 50.0 °F 52% 30.24 in 10.0 mi SSE 8.1 mph - N/A   Overcast
11:50 AM 69.8 °F 51.8 °F 53% 30.23 in 10.0 mi SSE 12.7 mph 16.1 mph N/A   Overcast
12:10 PM 68.0 °F 53.6 °F 60% 30.25 in 10.0 mi SSE 11.5 mph - N/A   Overcast
12:30 PM 66.2 °F 51.8 °F 60% 30.24 in 10.0 mi South 13.8 mph - N/A   Overcast
12:50 PM 66.2 °F 51.8 °F 60% 30.24 in 10.0 mi South 11.5 mph - N/A   Overcast
1:10 PM 64.4 °F 55.4 °F 73% 30.24 in 10.0 mi South 12.7 mph 16.1 mph N/A   Light Drizzle
1:30 PM 64.4 °F 55.4 °F 73% 30.23 in 10.0 mi SSE 11.5 mph 18.4 mph N/A Rain Light Rain
1:50 PM 66.2 °F 51.8 °F 60% 30.23 in 10.0 mi SSE 5.8 mph - N/A   Overcast
2:10 PM 64.4 °F 53.6 °F 68% 30.23 in 7.0 mi South 13.8 mph 18.4 mph N/A   Overcast
2:30 PM 64.4 °F 55.4 °F 73% 30.23 in 10.0 mi South 9.2 mph - N/A Rain Light Rain
2:50 PM 62.6 °F 55.4 °F 77% 30.23 in 7.0 mi South 9.2 mph - N/A   Overcast
3:10 PM 62.6 °F 55.4 °F 77% 30.23 in 7.0 mi South 9.2 mph - N/A   Overcast
3:30 PM 62.6 °F 55.4 °F 77% 30.23 in 10.0 mi South 10.4 mph - N/A   Overcast
3:50 PM 62.6 °F 57.2 °F 82% 30.23 in 10.0 mi SSE 6.9 mph - N/A   Overcast
4:10 PM 62.6 °F 57.2 °F 82% 30.23 in 10.0 mi ESE 3.5 mph - N/A   Overcast
4:30 PM 60.8 °F 57.2 °F 88% 30.23 in 5.0 mi SE 6.9 mph - N/A   Overcast
4:50 PM 60.8 °F 60.8 °F 100% 30.23 in 7.0 mi SE 5.8 mph - N/A   Overcast
5:10 PM 60.8 °F 57.2 °F 88% 30.23 in 7.0 mi SE 9.2 mph - N/A Rain Light Rain
5:30 PM 60.8 °F 57.2 °F 88% 30.23 in 10.0 mi SE 8.1 mph - N/A   Overcast
5:50 PM 60.8 °F 57.2 °F 88% 30.22 in 7.0 mi ESE 6.9 mph - N/A   Overcast
6:05 PM 60.8 °F 57.2 °F 88% 30.22 in 10.0 mi ESE 6.9 mph - N/A   Overcast
6:30 PM 60.8 °F 57.2 °F 88% 30.23 in 10.0 mi ESE 5.8 mph - N/A   Overcast
6:50 PM 60.8 °F 57.2 °F 88% 30.23 in 10.0 mi ESE 5.8 mph - N/A   Overcast
7:10 PM 60.8 °F 57.2 °F 88% 30.23 in 10.0 mi SE 3.5 mph - N/A   Overcast
7:30 PM 60.8 °F 55.4 °F 82% 30.24 in 10.0 mi SE 4.6 mph - N/A   Overcast
7:50 PM 60.8 °F 55.4 °F 82% 30.24 in 10.0 mi ESE 4.6 mph - N/A   Overcast
8:10 PM 59.0 °F 55.4 °F 88% 30.23 in 10.0 mi SE 8.1 mph - N/A   Drizzle
8:30 PM 59.0 °F 55.4 °F 88% 30.24 in 10.0 mi ESE 4.6 mph - N/A   Overcast
8:50 PM 59.0 °F 55.4 °F 88% 30.24 in 10.0 mi ESE 3.5 mph - N/A   Overcast
9:10 PM 59.0 °F 55.4 °F 88% 30.24 in 10.0 mi SE 5.8 mph - N/A   Overcast
9:30 PM 59.0 °F 55.4 °F 88% 30.24 in 10.0 mi SE 8.1 mph - N/A   Overcast
9:50 PM 59.0 °F 55.4 °F 88% 30.25 in 10.0 mi ESE 4.6 mph - N/A   Overcast
10:10 PM 59.0 °F 55.4 °F 88% 30.25 in 10.0 mi ESE 4.6 mph - N/A   Overcast
10:30 PM 59.0 °F 55.4 °F 88% 30.25 in 10.0 mi SE 6.9 mph - N/A   Overcast
10:50 PM 59.0 °F 55.4 °F 88% 30.25 in 7.0 mi Calm Calm - N/A   Overcast
11:10 PM 57.2 °F 55.4 °F 94% 30.24 in 7.0 mi Calm Calm - N/A   Overcast
11:50 PM 59.0 °F 55.4 °F 88% 30.24 in 7.0 mi SE 4.6 mph - N/A   Overcast